Temp
5 5 5 5 5 5 6 8 7 3 4 5 6 10 13 12 14 15 14 15 14 14 15 16 15 17 16 15 16 16 16 15 15 16 16 17 17 18 16 13 15 15 17 16
4 5 5 5 4 5 7 6 5 3 4 7 8 11 12 13 13 14 13 13 14 15 13 13 11 15 12 13 15 15 15 14 15 15 16 17 17 17 17 16 16 16 15 16
5 4 5 5 4 5 4 8 7 4 4 5 9 10 11 12 14 14 14 12 13 13 13 14 12 11 12 13 14 10 12 15 15 15 15 17 15 16 16 15 14 16 17 18
3 4 5 5 5 4 3 7 8 9 6 6 10 11 12 12 12 14 14 12 12 12 11 12 13 13 12 12 11 13 14 13 14 15 14 15 15 15 15 15 15 14 16 16
4 4 4 4 4 4 3 6 9 11 11 11 10 9 11 13 13 13 13 12 12 12 11 12 13 13 13 13 12 13 13 13 13 13 14 14 13 15 15 15 15 15 15 15
4 4 4 4 4 3 3 7 9 11 10 11 10 10 12 13 13 13 13 12 13 11 11 13 14 14 14 13 13 13 12 12 12 13 12 13 13 14 15 15 16 15 13 13
5 4 4 4 3 3 6 6 8 9 10 10 10 12 12 12 12 12 12 12 13 12 13 13 13 13 13 13 13 13 12 12 12 13 12 11 11 12 11 11 12 11 11 10
3 4 4 3 3 3 4 4 7 8 8 12 12 12 12 12 12 11 12 12 13 13 12 12 11 11 11 11 12 12 13 12 12 11 12 13 11 10 7 7 8 6 7 8
4 3 3 3 3 3 3 4 5 8 8 11 13 12 12 11 11 11 10 10 12 12 12 12 11 11 13 11 11 12 12 12 12 12 11 11 8 10 10 8 9 6 5 5
3 3 3 3 3 3 4 4 5 7 7 10 11 11 12 12 12 11 11 10 10 11 10 10 11 11 13 11 10 9 10 10 11 11 12 8 7 9 9 7 6 4 3 2
3 3 3 3 3 3 3 3 5 7 8 9 10 11 11 11 13 11 11 10 10 10 10 11 11 11 12 11 7 10 10 11 11 12 11 9 7 8 7 4 4 3 2 1
3 3 3 3 4 4 4 5 5 6 9 8 7 7 8 8 10 12 11 11 11 11 12 12 12 11 10 10 10 9 9 7 9 7 7 4 5 3 3 4 3 1 1 0
3 3 4 4 4 4 4 6 6 8 8 9 10 9 8 8 8 8 11 11 10 10 11 12 12 11 12 11 9 9 9 9 7 7 5 4 3 3 3 3 2 1 1 -0
4 4 5 5 5 5 4 7 6 8 10 8 8 8 8 8 9 9 10 10 10 10 12 11 11 11 11 10 10 9 10 9 8 5 4 5 4 3 2 1 0 -1 -1 -0
4 4 5 5 5 5 6 5 6 6 9 9 8 8 8 9 9 10 10 11 11 12 12 11 11 12 10 10 11 10 10 6 8 8 7 6 3 2 2 1 0 0 0 -0
4 4 4 4 4 5 7 6 6 6 10 9 8 8 8 9 9 10 10 11 11 12 12 11 12 10 10 9 8 6 8 8 7 5 5 4 3 2 2 1 0 1 1 1
3 4 4 5 5 6 6 6 5 6 7 8 8 8 8 8 10 10 10 11 11 12 11 11 12 11 11 10 9 6 7 5 4 5 4 2 3 1 2 2 1 0 0 0
4 4 5 5 5 5 6 4 5 6 8 10 8 8 8 9 10 10 10 10 11 10 11 10 11 10 11 9 6 6 5 4 4 4 5 5 4 3 3 2 1 1 1 0
4 4 5 5 6 7 6 4 5 5 9 9 9 8 7 9 9 9 10 10 9 10 10 10 10 10 8 9 6 5 5 4 3 5 5 4 3 3 3 2 2 2 1 0
4 5 6 5 5 3 4 7 8 9 9 10 9 10 7 9 9 8 9 9 9 8 9 9 8 9 8 9 7 6 5 5 5 3 3 3 3 3 3 3 2 2 1 -1
6 5 4 4 3 6 8 6 8 8 8 9 9 9 8 9 8 8 10 9 9 9 8 9 8 8 7 6 6 6 5 4 5 5 5 4 4 3 3 2 1 0 -1 -2
5 5 4 5 7 7 6 6 7 8 8 8 9 10 9 9 10 9 8 9 8 7 9 8 8 5 6 4 4 4 4 4 4 4 4 3 3 2 1 -0 -1 -3 -5 -7
5 7 6 7 5 5 6 4 6 7 7 7 8 7 8 9 9 7 7 5 7 8 6 8 7 5 5 4 3 2 2 3 3 2 2 2 1 -0 -1 -3 -6 -7 -7 -8
6 5 3 5 5 5 6 7 6 4 6 8 7 5 7 7 6 6 6 6 6 7 7 8 6 4 3 3 3 2 1 0 0 -1 -1 -2 -3 -5 -6 -7 -7 -8 -9 -9
5 6 4 4 4 4 3 4 4 3 6 7 7 7 8 6 4 6 6 5 6 8 7 6 5 2 1 1 0 -1 -2 -2 -2 -4 -5 -6 -7 -7 -8 -8 -8 -9 -10 -10
4 4 4 4 5 3 4 4 3 5 6 8 8 6 6 6 7 6 6 7 8 6 4 3 2 1 0 -0 -1 -2 -3 -4 -4 -6 -6 -7 -8 -7 -7 -9 -9 -10 -9 -10
4 3 2 4 4 4 3 4 5 7 7 5 8 6 6 7 7 7 7 6 5 3 2 2 1 0 -1 -2 -3 -4 -4 -4 -5 -6 -6 -7 -7 -9 -8 -8 -9 -8 -9 -9
Height
714 716 719 722 726 729 731 728 728 739 742 745 740 717 706 712 705 708 709 708 705 705 706 696 702 692 697 711 707 709 712 713 712 705 710 710 707 699 708 721 710 715 701 704
708 709 714 717 722 726 726 725 732 739 740 727 727 713 708 708 708 707 712 709 705 705 711 710 718 703 719 718 711 708 713 717 710 710 712 707 706 702 705 707 709 707 710 707
699 704 709 713 719 723 727 720 723 738 738 731 715 713 710 708 705 704 707 713 708 711 709 705 710 718 721 720 718 728 723 709 703 708 705 698 713 710 711 716 720 708 702 696
696 700 705 710 714 720 725 715 705 704 717 723 710 708 705 703 703 703 701 710 711 711 714 710 707 710 719 721 727 722 720 718 711 711 713 711 710 709 711 713 712 718 711 711
687 693 700 706 712 718 721 713 701 696 694 701 710 712 703 695 696 696 699 705 707 712 715 710 705 709 710 714 722 718 721 715 718 714 714 716 716 711 710 711 711 712 711 714
683 683 695 702 707 712 714 710 704 697 696 693 704 702 694 691 696 698 701 705 706 712 719 710 705 707 711 713 715 719 723 724 722 711 720 719 717 712 709 708 706 711 715 722
677 684 692 697 704 708 708 707 707 699 691 692 692 691 692 692 697 700 705 709 703 714 717 718 718 718 719 719 720 720 725 724 724 713 724 724 725 729 731 731 723 730 733 737
673 681 689 695 701 705 708 708 707 699 693 682 687 689 688 694 696 707 703 710 710 717 716 715 720 724 725 726 724 724 720 719 721 724 713 711 724 737 754 754 744 760 754 753
671 680 688 694 700 704 709 709 708 704 696 683 683 685 689 694 700 707 716 720 720 717 715 711 709 711 700 719 724 720 725 722 721 718 717 716 742 742 742 753 740 762 766 765
672 681 687 693 699 704 708 709 709 706 702 694 690 691 690 694 696 701 712 718 721 719 719 718 708 707 699 709 719 732 729 729 723 716 714 743 754 745 749 751 760 771 774 774
674 681 686 692 698 703 707 710 708 706 699 702 699 699 698 697 694 700 708 717 719 718 718 707 713 710 706 713 736 721 724 720 720 709 720 729 755 748 755 772 773 776 779 780
676 681 687 691 696 701 706 706 705 706 702 707 709 710 710 708 706 699 710 707 708 708 703 702 703 710 716 716 720 731 733 741 730 744 748 767 766 771 775 773 774 781 783 786
678 683 687 691 695 700 704 703 704 705 705 706 705 710 714 712 711 711 706 710 715 716 715 707 705 710 705 710 723 731 736 738 743 747 763 767 772 774 777 778 782 785 787 790
680 684 687 692 695 699 702 703 705 704 699 705 716 715 715 715 712 712 711 712 716 717 712 710 707 707 714 715 718 725 726 735 744 760 766 767 772 775 780 784 788 790 792 794
682 685 688 691 695 699 703 705 705 703 702 702 714 717 719 717 715 715 715 715 713 709 709 712 708 709 720 722 719 724 730 744 741 736 750 755 770 778 782 786 789 791 793 796
684 686 689 692 695 699 701 705 706 703 702 704 709 721 721 720 718 718 718 716 714 710 710 712 713 721 721 722 729 745 743 745 747 755 757 765 774 779 784 788 791 793 795 797
686 689 691 694 697 699 701 700 704 703 704 707 714 715 722 722 719 719 717 717 716 711 712 713 712 716 718 722 723 745 748 754 757 760 765 774 777 780 784 788 792 796 798 800
689 691 693 696 698 701 703 705 704 704 705 704 708 716 719 722 714 716 720 716 716 719 717 720 715 722 719 724 743 747 753 759 761 763 762 767 775 780 785 789 793 796 799 801
692 694 697 699 701 701 706 706 705 706 707 704 704 711 718 721 718 721 720 718 722 723 718 716 721 720 726 726 743 748 752 757 762 764 766 772 776 781 785 789 792 794 799 803
696 698 697 701 705 706 707 708 707 706 707 706 703 704 719 719 718 722 722 722 717 721 720 724 725 720 731 731 740 748 753 756 760 765 770 774 778 781 784 788 792 796 800 805
696 698 703 706 707 707 705 708 705 704 705 704 706 709 714 718 720 719 717 718 720 717 722 721 722 720 732 741 744 748 753 759 762 765 769 773 777 781 785 791 795 800 803 807
697 698 704 706 706 705 707 708 709 700 703 707 708 706 712 718 717 718 724 719 723 721 721 723 718 734 738 745 749 753 757 761 764 767 771 776 780 785 791 796 800 805 809 813
700 700 703 702 707 707 701 712 705 705 709 713 711 716 718 719 719 727 727 735 726 724 728 715 724 738 742 748 754 760 763 766 768 772 776 781 786 791 796 801 806 810 812 815
698 701 711 705 706 705 703 698 703 717 713 709 714 724 719 723 728 729 729 731 730 725 717 712 726 742 748 752 756 762 767 771 775 779 783 788 793 798 801 805 808 811 814 817
703 701 708 708 714 713 716 717 719 721 716 714 716 718 718 726 735 731 731 734 724 712 713 726 735 746 753 758 762 768 772 776 780 785 789 794 797 801 804 808 811 814 816 818
709 712 713 713 711 718 717 719 722 721 718 716 715 722 723 726 722 729 725 717 709 719 733 740 745 751 757 761 766 771 775 779 783 788 792 796 799 803 806 810 814 816 818 820
711 717 720 714 716 719 722 719 720 720 717 722 715 723 722 721 717 717 720 722 730 739 744 746 750 754 759 765 769 774 778 782 786 790 794 798 802 806 809 812 816 818 820 822
Wind_Speed
32 30 27 24 21 19 13 6 3 17 23 4 3 9 5 2 9 9 8 6 7 9 10 9 6 10 3 2 7 15 9 4 6 12 4 4 9 10 4 3 6 7 9 1
29 34 29 27 27 24 10 4 3 12 5 5 7 10 12 9 9 11 8 8 8 6 12 6 3 7 4 2 5 9 8 7 8 8 8 6 7 7 7 5 5 11 9 2
27 34 33 31 28 27 5 4 4 3 3 4 10 18 12 13 13 8 8 3 5 9 10 9 8 7 4 3 3 3 2 5 8 6 2 2 6 9 8 5 5 10 11 9
26 38 36 32 29 27 5 3 5 10 7 9 12 13 10 17 9 12 12 6 11 10 6 9 9 10 11 6 4 4 5 6 6 2 1 1 2 6 7 8 9 6 10 11
26 45 38 32 29 29 7 2 4 7 5 19 20 13 11 18 16 14 11 8 8 12 6 4 10 9 10 6 6 5 2 3 5 8 4 6 8 9 11 11 11 13 13 11
24 36 33 31 29 31 5 9 6 6 7 16 16 14 16 16 11 4 5 7 7 11 6 3 3 3 2 3 9 7 4 4 4 7 2 4 9 6 8 10 10 7 9 9
25 35 33 31 32 29 4 2 5 4 6 12 15 18 14 12 16 6 6 14 8 8 7 9 8 7 6 6 4 4 5 5 3 1 4 5 6 8 4 7 7 8 7 10
32 37 34 33 30 34 9 5 2 3 5 13 15 15 14 8 8 9 8 5 7 11 10 7 8 6 5 4 4 5 5 4 3 3 7 7 6 6 3 3 3 6 6 7
36 34 30 29 28 28 15 13 9 5 3 8 14 12 13 11 10 8 7 7 6 7 4 5 6 5 6 6 6 5 3 2 4 5 4 4 6 6 6 3 4 5 7 7
31 29 28 24 23 20 15 7 8 5 2 4 0 6 10 7 8 7 11 8 6 4 5 5 4 3 2 7 8 6 5 3 7 6 5 5 1 6 3 4 5 6 7 8
28 27 27 22 22 21 15 7 10 7 2 5 5 2 5 3 5 6 10 6 3 6 7 5 3 3 3 4 3 5 7 7 5 4 4 3 9 1 2 3 5 4 7 9
26 25 23 21 22 23 20 7 6 7 2 5 12 12 10 7 7 5 10 2 10 3 5 2 3 3 3 7 6 2 2 2 2 4 3 4 7 7 4 3 6 6 7 8
24 21 19 20 20 20 21 4 7 8 6 7 5 6 10 10 5 3 4 2 4 3 2 1 0 2 5 5 4 5 3 5 3 6 6 6 7 7 7 7 8 8 8 9
21 18 18 19 19 20 16 11 8 5 3 4 5 6 6 7 6 4 4 10 4 6 4 2 2 2 2 3 4 1 2 8 7 4 7 8 6 7 8 9 9 10 9 8
17 16 15 16 18 18 11 9 4 4 3 5 6 12 10 8 10 11 10 8 6 5 3 3 2 3 3 2 2 4 1 4 3 2 12 5 10 9 9 9 9 8 10 9
16 13 14 17 19 21 14 2 2 2 17 4 4 5 5 7 9 9 6 4 2 2 2 2 3 3 2 3 2 2 3 4 5 4 8 12 13 11 10 10 9 8 8 9
20 15 12 12 12 6 2 2 4 5 2 3 5 5 3 0 2 2 3 4 3 3 2 2 2 4 3 1 3 8 6 8 12 14 15 11 13 8 11 12 12 12 11 9
15 15 19 19 16 12 6 7 7 6 3 2 3 3 5 3 3 3 2 2 1 3 2 1 1 3 2 2 8 10 11 12 13 10 0 12 13 14 12 14 13 10 9 9
21 17 15 8 3 3 5 5 7 4 2 2 3 7 4 2 3 1 2 2 2 1 1 2 2 3 3 4 13 12 14 10 11 9 12 16 14 13 12 11 10 9 9 9
12 4 3 3 3 7 2 1 1 1 2 1 2 4 4 4 3 2 3 1 1 3 2 3 2 1 5 3 12 11 12 9 13 13 14 13 12 11 11 10 9 9 10 10
3 2 2 7 3 2 1 2 2 2 3 2 3 7 7 4 3 3 2 2 1 3 3 3 4 3 6 7 10 11 11 12 11 11 12 12 11 11 10 9 11 12 12 11
3 9 8 3 1 2 3 2 2 3 3 4 7 7 6 4 1 2 2 2 2 1 2 2 2 4 10 9 11 11 10 12 10 12 12 11 12 12 12 13 13 13 13 12
4 2 3 1 1 2 3 5 3 4 4 4 6 6 3 3 2 2 2 2 1 2 2 2 3 8 9 11 11 10 10 11 11 12 15 16 14 13 14 14 12 14 14 11
2 2 3 2 3 2 1 3 5 3 2 7 6 3 2 1 2 1 2 2 2 2 3 2 4 10 10 9 10 11 10 10 11 13 16 16 16 14 14 14 13 13 13 11
3 3 3 3 3 3 3 3 5 2 4 6 5 3 3 2 2 2 1 2 3 3 2 2 6 11 10 10 9 11 10 10 10 14 15 15 16 15 15 13 12 11 12 11
2 4 3 4 6 5 5 7 5 3 3 3 3 2 3 2 3 3 3 2 2 3 2 3 7 10 10 9 9 10 12 13 14 14 15 16 15 16 16 13 11 11 11 11
2 3 3 3 6 5 4 3 4 2 2 2 1 2 1 2 2 2 2 2 3 2 3 4 7 10 10 10 12 13 14 14 15 16 16 16 16 16 16 14 12 12 10 9
Wind_Direction
226 201 197 191 190 180 187 199 189 169 155 184 210 222 213 302 213 209 229 271 245 245 228 250 226 226 94 52 223 194 193 273 213 210 177 215 275 286 256 264 215 239 281 306
251 197 195 188 188 181 186 170 118 175 184 210 200 231 225 215 211 216 212 228 222 216 231 237 214 216 73 121 242 174 172 213 221 195 200 207 239 239 289 302 280 277 287 358
209 201 193 187 192 190 249 203 151 149 217 270 230 205 218 212 218 230 217 207 192 222 210 235 192 153 171 170 150 11 304 255 251 271 360 69 190 206 218 207 266 276 271 281
230 209 193 190 190 189 213 232 222 173 178 209 230 208 217 213 207 213 204 191 214 200 201 218 193 155 145 162 141 197 218 227 249 320 35 11 266 222 216 241 249 264 287 301
246 201 192 192 192 185 206 234 210 190 215 199 210 211 220 212 197 189 198 216 200 193 202 216 176 171 175 164 186 207 201 221 238 226 240 260 266 254 251 261 268 267 278 283
215 185 189 190 190 173 190 230 252 232 222 190 197 205 221 209 193 150 221 187 216 169 202 120 113 133 121 163 187 189 194 185 204 235 192 264 255 278 287 278 252 288 276 358
213 190 185 183 188 185 189 225 269 210 215 184 196 201 203 204 195 143 178 227 193 106 122 117 114 115 129 125 119 175 194 187 179 188 187 227 77 62 17 341 347 4 336 358
193 181 179 184 190 188 201 256 296 259 228 186 183 194 196 175 135 187 145 77 81 156 171 152 146 157 159 148 176 182 203 189 183 194 217 105 161 52 40 15 64 49 334 335
177 171 177 181 187 192 217 249 299 282 278 175 183 187 172 160 147 124 118 125 141 179 209 213 218 191 169 162 143 159 154 279 237 196 248 237 83 36 38 54 231 25 356 325
164 173 174 178 185 192 200 243 256 283 329 65 52 172 176 181 173 158 152 149 158 211 189 206 214 178 305 158 169 172 176 195 224 201 239 104 217 345 46 245 51 23 16 352
167 172 174 184 187 188 180 233 238 252 168 57 44 16 119 151 194 164 141 142 211 175 202 208 175 222 175 127 1 160 182 185 198 224 232 200 356 137 277 25 63 69 64 59
166 169 184 187 190 187 180 241 202 232 292 95 90 72 48 28 1 87 179 18 156 137 228 247 134 184 144 159 165 157 221 15 60 8 56 89 47 76 74 50 91 82 88 79
166 178 175 170 178 183 191 182 160 143 131 136 122 38 34 35 35 356 190 134 116 181 322 107 35 140 175 188 117 139 154 156 97 182 133 119 102 92 80 84 98 95 93 89
164 163 169 171 173 187 189 173 192 233 149 113 78 70 52 24 73 87 59 105 117 131 206 163 177 129 306 74 111 82 105 155 133 79 132 124 113 111 113 108 106 103 94 100
157 159 161 167 177 176 168 146 206 285 279 120 117 98 52 76 88 93 105 127 161 173 153 149 120 92 112 89 154 126 195 143 210 132 155 76 132 133 132 126 120 123 117 114
154 144 147 159 157 149 150 103 85 10 124 125 128 104 98 92 88 87 79 80 70 80 95 103 86 87 201 156 122 127 102 116 150 116 101 110 130 127 129 128 127 124 114 114
143 130 131 138 139 141 132 107 112 126 87 105 131 135 137 341 155 82 83 64 57 16 100 68 100 146 267 129 162 159 134 106 112 122 119 122 142 137 136 135 127 129 126 126
134 127 117 114 113 95 87 41 101 92 105 136 123 97 154 223 178 116 318 94 116 25 65 149 206 141 251 168 131 147 128 135 135 145 142 136 128 135 131 136 138 137 137 133
134 117 107 97 57 94 90 90 74 59 359 112 158 155 148 182 82 148 144 307 104 7 208 184 258 146 220 122 156 163 156 156 144 133 128 136 140 140 144 148 154 144 143 141
128 106 102 93 70 113 76 155 98 37 88 18 117 90 133 137 171 112 134 300 169 191 128 98 273 194 108 116 152 162 167 154 158 148 151 148 148 152 151 155 155 149 144 142
132 90 76 105 96 161 58 106 171 161 125 117 126 143 144 172 162 137 331 149 185 239 128 249 191 208 155 139 156 165 153 149 162 163 157 158 155 153 150 144 137 138 139 135
114 111 113 107 158 141 114 110 142 211 122 164 152 126 121 122 258 102 203 196 220 263 161 238 242 108 137 135 136 121 135 144 147 156 153 152 144 142 142 141 137 133 128 124
108 111 93 215 23 139 196 151 157 138 133 177 141 128 120 149 89 64 152 186 179 183 225 226 56 139 146 143 127 118 129 136 137 129 133 129 128 131 139 134 128 133 125 127
77 103 90 1 118 100 62 52 80 68 166 137 108 94 85 80 77 219 184 79 234 251 246 96 131 151 150 147 144 137 131 121 120 117 119 123 127 120 119 134 137 135 132 131
55 25 59 67 84 71 73 95 109 25 135 134 130 120 114 106 120 164 104 179 230 236 29 73 114 133 140 135 126 129 128 125 124 129 133 134 133 131 128 130 132 135 132 131
65 35 129 135 123 114 105 103 118 145 128 129 114 151 129 163 140 165 203 260 261 74 62 101 133 136 145 136 129 129 130 131 131 132 135 134 135 137 132 129 132 137 141 137
35 76 344 41 68 72 66 71 77 152 144 98 151 132 108 146 211 183 177 331 51 88 102 120 139 151 140 132 128 133 136 139 139 136 136 134 134 135 136 137 146 146 139 143